Location: Campillo
(40.8621°N, 4.2488°W)
Time: 17:10:09
(UTC+00:00)

Cosmos 2084 - Pass Details

Date: 27 September 2021
Orbit: 528 x 653 km, 62.8° (Epoch: 28 October)

Event Time Altitude Azimuth Distance (km) Brightness Sun altitude
Exits shadow 03:26:02 10° 122° (ESE) 1,797 6.2 -30.7°
Reaches altitude 10° 03:26:24 10° 117° (ESE) 1,775 6.3 -30.6°
Maximum altitude 03:26:51 10° 110° (ESE) 1,767 6.4 -30.5°
Drops below altitude 10° 03:27:18 10° 104° (ESE) 1,779 6.5 -30.5°
Sets 03:31:38 0° 59° (ENE) 2,701 8.1 -29.7°
